User: anonymous   Login
Location: PACMO
(41.3967°N, 90.3760°W)
Time: 07:20:06
(UTC-06:00)
Language:

BREEZE-M DEB (TANK) - Orbit

View from above orbital plane
View from above orbital plane
View from above satellite
View from above satellite

Ground track
Ground track

The orbit data is extracted from the following two-line orbital elements,

1 31863U 07032B   18051.95374614  .00000139  00000-0  11630-3 0  9994
2 31863  45.9470 112.3123 4970927 237.2882  65.0434  5.52167163213267
Epoch (UTC): 20 February 2018 22:53:23
Eccentricity: 0.4970927
inclination: 45.9470°
perigee height: 422 km
apogee height: 13864 km
right ascension of ascending node: 112.3123°
argument of perigee: 237.2882°
revolutions per day: 5.52167163
mean anomaly at epoch: 65.0434°
orbit number at epoch: 21326

The dashed part of the orbit path shows where the satellite is in the earth's shadow,  

DLR